Location: Bijele Vode
(45.2833°N, 16.2000°E)
Time: 10:21:19
(UTC+00:00)

CZ-2C R/B - Visible Passes

Search period start: 20 June 2021 00:00
Search period end: 30 June 2021 00:00
Orbit: 390 x 580 km, 35.0° (Epoch: 19 June)

Date Brightness Start Highest point End Pass type
(mag) Time Alt. Az. Time Alt. Az. Time Alt. Az.
23 Jun 3.0 02:32:10 10° SSW 02:33:48 13° S 02:35:25 10° SE visible
24 Jun 3.0 02:04:35 11° SSW 02:06:09 13° S 02:07:56 10° SE visible
25 Jun 2.9 01:38:08 14° S 01:38:29 14° S 01:40:25 10° SE visible
26 Jun 3.1 01:11:42 14° SSE 01:11:42 14° SSE 01:12:53 10° SE visible
27 Jun 2.8 02:19:37 10° SW 02:21:56 16° S 02:24:10 10° SSE visible
28 Jun 2.7 01:53:21 15° SSW 01:54:15 16° S 01:56:35 10° SSE visible
29 Jun 2.8 01:27:17 16° S 01:27:17 16° S 01:29:00 10° SE visible
